TimeHST,TemperatureF,Dew PointF,Humidity,Sea Level PressureIn,VisibilityMPH,Wind Direction,Wind SpeedMPH,Gust SpeedMPH,PrecipitationIn,Events,Conditions,WindDirDegrees,DateUTC
12:57 AM,73.4,70.0,89,29.98,10.0,East,5.8,-,N/A,,Partly Cloudy,90,2012-10-03 10:57:00
1:57 AM,74.1,70.0,87,29.97,10.0,East,4.6,-,N/A,,Clear,80,2012-10-03 11:57:00
2:57 AM,75.7,66.9,74,29.96,10.0,East,4.6,-,N/A,,Scattered Clouds,100,2012-10-03 12:57:00
3:18 AM,84.2,68.0,58,29.97,6.2,ESE,4.6,-,N/A,,Mostly Cloudy,120,2012-10-03 13:18:00
3:43 AM,87.8,68.0,52,29.97,6.2,ESE,4.6,-,N/A,,Mostly Cloudy,110,2012-10-03 13:43:00
3:57 AM,75.0,68.0,79,29.95,10.0,East,3.5,-,N/A,,Partly Cloudy,100,2012-10-03 13:57:00
4:57 AM,74.1,68.0,81,29.96,10.0,Variable,3.5,-,N/A,,Partly Cloudy,0,2012-10-03 14:57:00
5:57 AM,75.9,68.0,76,29.98,10.0,East,4.6,-,N/A,,Mostly Cloudy,90,2012-10-03 15:57:00
6:57 AM,76.8,69.1,77,29.99,10.0,ESE,5.8,-,N/A,,Scattered Clouds,110,2012-10-03 16:57:00
7:57 AM,77.5,68.0,72,30.00,10.0,East,4.6,-,N/A,,Scattered Clouds,90,2012-10-03 17:57:00
8:57 AM,77.0,69.1,76,30.02,10.0,Variable,6.9,-,N/A,,Mostly Cloudy,0,2012-10-03 18:57:00
9:57 AM,81.7,69.1,65,30.02,10.0,East,9.2,-,N/A,,Scattered Clouds,90,2012-10-03 19:57:00
10:57 AM,82.4,69.1,64,30.01,10.0,East,10.4,-,N/A,,Partly Cloudy,90,2012-10-03 20:57:00
11:57 AM,84.2,70.0,62,30.00,10.0,ENE,8.1,-,N/A,,Mostly Cloudy,70,2012-10-03 21:57:00
12:08 PM,91.4,69.8,49,30.00,6.2,NE,9.2,-,N/A,,Mostly Cloudy,50,2012-10-03 22:08:00
12:18 PM,84.2,69.8,62,30.00,6.2,ENE,8.1,-,N/A,,Mostly Cloudy,60,2012-10-03 22:18:00
12:44 PM,84.2,69.8,62,29.99,6.2,ENE,8.1,-,N/A,,Mostly Cloudy,60,2012-10-03 22:44:00
12:57 PM,82.4,70.0,66,29.97,10.0,ENE,8.1,-,N/A,,Scattered Clouds,60,2012-10-03 22:57:00
1:04 PM,87.8,69.8,55,29.99,6.2,ENE,8.1,-,N/A,,Overcast,60,2012-10-03 23:04:00
1:57 PM,82.4,70.0,66,29.96,10.0,NE,6.9,-,N/A,,Overcast,50,2012-10-03 23:57:00
2:19 PM,82.4,69.8,66,29.97,6.2,ENE,8.1,-,N/A,,Scattered Clouds,60,2012-10-04 00:19:00
2:57 PM,80.6,69.1,68,29.95,10.0,ENE,8.1,-,N/A,,Partly Cloudy,70,2012-10-04 00:57:00
3:57 PM,80.6,70.0,70,29.96,10.0,ENE,4.6,-,N/A,,Partly Cloudy,60,2012-10-04 01:57:00
4:29 PM,80.6,69.8,70,29.98,6.2,East,5.8,-,0.00,Rain,Light Rain,80,2012-10-04 02:29:00
4:44 PM,80.6,69.8,70,29.98,6.2,East,3.5,-,0.00,,Mostly Cloudy,80,2012-10-04 02:44:00
4:57 PM,78.8,69.1,72,29.96,10.0,East,8.1,-,0.00,Rain,Light Rain,80,2012-10-04 02:57:00
5:57 PM,78.8,69.1,72,29.98,10.0,Calm,Calm,-,0.00,,Partly Cloudy,0,2012-10-04 03:57:00
6:15 PM,84.2,69.8,62,30.00,6.2,Variable,3.5,-,N/A,,Mostly Cloudy,0,2012-10-04 04:15:00
6:22 PM,78.8,69.8,74,30.00,6.2,Calm,Calm,-,N/A,,Scattered Clouds,0,2012-10-04 04:22:00
6:57 PM,76.5,69.1,78,30.00,10.0,ENE,3.5,-,N/A,,Scattered Clouds,70,2012-10-04 04:57:00
7:57 PM,77.5,69.1,75,30.02,10.0,ENE,5.8,-,N/A,,Mostly Cloudy,60,2012-10-04 05:57:00
8:57 PM,77.0,69.1,76,30.03,10.0,East,6.9,-,N/A,,Mostly Cloudy,80,2012-10-04 06:57:00
9:57 PM,77.0,68.0,74,30.04,10.0,Variable,5.8,-,N/A,,Mostly Cloudy,0,2012-10-04 07:57:00
10:57 PM,77.0,68.0,74,30.03,10.0,East,4.6,-,0.00,Rain,Light Rain,90,2012-10-04 08:57:00
11:49 PM,84.2,69.8,62,30.03,6.2,Variable,4.6,-,0.00,,Mostly Cloudy,0,2012-10-04 09:49:00
11:57 PM,84.0,69.1,61,30.02,10.0,Variable,5.8,-,0.00,,Mostly Cloudy,0,2012-10-04 09:57:00